FW0014 Weather Reports


time (UTC)temp
C
wind
direction
speed
KPH
gust
KPH
rain 1hr
cm
rain 24hr
cm
rain mn
cm
humidity
%
barometer
mb
20260509175602 27 99 0.0 0.0 0.00 0.03 0.03 70 1011.3
20260509175325 27 62 0.0 0.0 0.00 0.03 0.03 70 1013.1
20260509175031 27 62 0.0 0.0 0.00 0.03 0.03 70 1011.3
20260509174822 27 42 0.0 0.0 0.00 0.03 0.03 70 1013.1
20260509174539 27 12 0.0 0.0 0.00 0.03 0.03 71 1011.3
20260509174318 27 8 0.0 0.0 0.00 0.03 0.03 70 1013.2
20260509174024 26 348 0.0 0.0 0.00 0.03 0.03 71 1011.4
20260509173833 27 359 0.0 0.0 0.00 0.03 0.03 71 1013.3
20260509173504 26 334 0.0 0.0 0.00 0.03 0.03 71 1011.5
20260509173329 27 206 0.0 0.0 0.00 0.03 0.03 71 1013.4
20260509173101 26 65 0.0 0.0 0.00 0.03 0.03 72 1011.6
20260509172846 27 37 0.0 0.0 0.00 0.03 0.03 72 1013.4
20260509172527 26 324 0.0 0.0 0.00 0.03 0.03 71 1011.6
20260509172322 26 314 0.0 0.0 0.00 0.03 0.03 72 1013.5
20260509172025 26 8 0.0 0.0 0.00 0.03 0.03 71 1011.7
20260509171818 27 354 0.0 0.0 0.00 0.03 0.03 71 1013.6
20260509171512 26 53 0.0 0.0 0.00 0.03 0.03 73 1011.9
20260509171314 27 10 0.0 0.0 0.00 0.03 0.03 73 1013.7
20260509171003 26 346 0.0 0.0 0.00 0.03 0.03 73 1011.8
20260509170850 26 346 0.0 0.0 0.00 0.03 0.03 73 1013.6
20260509170537 26 45 0.0 0.0 0.00 0.03 0.03 73 1011.8
20260509170326 26 32 0.0 0.0 0.00 0.03 0.03 74 1013.6
20260509170031 26 87 0.0 0.0 0.00 0.03 0.03 74 1011.8
20260509165822 26 87 0.0 0.0 0.00 0.03 0.03 74 1013.7
20260509165522 26 51 0.0 0.0 0.00 0.03 0.03 75 1011.8
20260509165319 26 54 0.0 0.0 0.00 0.03 0.03 76 1013.7
20260509165015 26 42 0.0 0.0 0.00 0.03 0.03 77 1011.8
20260509164834 26 42 0.0 0.0 0.00 0.03 0.03 77 1013.7
20260509164559 26 39 0.0 0.0 0.00 0.03 0.03 77 1011.8
20260509164345 26 4 0.0 0.0 0.00 0.03 0.03 77 1013.6
20260509164030 26 341 0.0 0.0 0.00 0.03 0.03 77 1011.7
20260509163820 26 359 0.0 0.0 0.00 0.03 0.03 77 1013.5
20260509163528 25 342 0.0 0.0 0.00 0.03 0.03 77 1011.7
20260509163317 26 13 0.0 0.0 0.00 0.03 0.03 77 1013.4
20260509163019 25 47 0.0 8.0 0.00 0.03 0.03 77 1011.7
20260509162831 26 359 0.0 9.7 0.00 0.03 0.03 77 1013.4
20260509162602 25 336 0.0 14.5 0.00 0.03 0.03 78 1011.5
20260509162327 25 334 3.2 14.5 0.00 0.03 0.03 77 1013.4
20260509162053 25 334 4.8 14.5 0.00 0.03 0.03 78 1011.7
20260509161843 25 303 6.4 14.5 0.00 0.03 0.03 77 1013.3
20260509161530 25 30 4.8 14.5 0.00 0.03 0.03 79 1011.7
20260509161338 25 354 4.8 14.5 0.00 0.03 0.03 78 1013.4
20260509161049 25 308 6.4 14.5 0.00 0.03 0.03 78 1011.7
20260509160833 25 314 9.7 14.5 0.00 0.03 0.03 78 1013.5
20260509160541 25 21 3.2 9.7 0.00 0.03 0.03 80 1011.7
20260509160349 25 354 1.6 12.9 0.00 0.03 0.03 80 1013.6
20260509160007 25 330 3.2 12.9 0.00 0.03 0.03 79 1011.8
20260509155824 25 320 4.8 12.9 0.00 0.03 0.03 79 1013.5
20260509155600 25 298 6.4 12.9 0.00 0.03 0.03 80 1011.8
20260509155339 25 322 1.6 9.7 0.00 0.03 0.03 81 1013.6
20260509155032 25 321 3.2 6.4 0.00 0.03 0.03 81 1011.9
20260509154814 25 72 1.6 6.4 0.00 0.03 0.03 81 1013.7
20260509154523 25 195 0.0 4.8 0.00 0.03 0.03 81 1011.9
20260509154330 25 195 0.0 4.8 0.00 0.03 0.03 81 1013.7
20260509154010 25 195 0.0 4.8 0.00 0.03 0.03 81 1011.9
20260509153826 25 195 0.0 0.0 0.00 0.03 0.03 82 1013.7
20260509153602 24 195 0.0 0.0 0.00 0.03 0.03 82 1011.9
20260509153321 24 195 0.0 0.0 0.00 0.03 0.03 83 1013.6
20260509153056 24 195 0.0 0.0 0.00 0.03 0.03 83 1011.9
20260509152818 24 195 0.0 0.0 0.00 0.03 0.03 83 1013.6
20260509152545 24 195 0.0 0.0 0.00 0.03 0.03 83 1011.9
20260509152315 24 174 0.0 0.0 0.00 0.03 0.03 83 1013.6
20260509152037 23 215 0.0 0.0 0.00 0.03 0.03 85 1011.8
20260509151830 24 204 0.0 0.0 0.00 0.03 0.03 85 1013.5
20260509151529 23 243 0.0 0.0 0.00 0.03 0.03 85 1011.7
20260509151325 23 258 0.0 0.0 0.00 0.03 0.03 85 1013.5
20260509151022 23 200 0.0 0.0 0.00 0.03 0.03 85 1011.7
20260509150821 23 201 0.0 0.0 0.00 0.03 0.03 85 1013.3
20260509150518 23 223 0.0 0.0 0.00 0.03 0.03 85 1011.5
20260509150317 23 224 0.0 0.0 0.00 0.03 0.03 85 1013.2
20260509150104 23 208 0.0 0.0 0.00 0.03 0.03 86 1011.3
20260509145832 23 199 0.0 0.0 0.00 0.03 0.03 86 1013.1
20260509145553 23 241 0.0 0.0 0.00 0.03 0.03 86 1011.2
20260509145329 23 226 0.0 0.0 0.00 0.03 0.03 86 1012.9
20260509145044 23 201 0.0 0.0 0.00 0.03 0.03 87 1011.2
20260509144825 23 228 0.0 0.0 0.00 0.03 0.03 87 1012.8
20260509144532 23 271 0.0 0.0 0.00 0.03 0.03 87 1011.2
20260509144341 23 264 0.0 0.0 0.00 0.03 0.03 88 1012.9
20260509144056 22 235 0.0 0.0 0.00 0.03 0.03 87 1011.1
20260509143817 23 206 0.0 0.0 0.00 0.03 0.03 88 1012.9
20260509143549 22 214 0.0 0.0 0.00 0.03 0.03 88 1011.1
20260509143332 22 224 0.0 0.0 0.00 0.03 0.03 87 1012.8
20260509143051 22 261 0.0 0.0 0.00 0.03 0.03 88 1011.1
20260509142828 22 226 0.0 0.0 0.00 0.03 0.03 88 1012.9
20260509142535 22 231 0.0 0.0 0.00 0.03 0.03 88 1011.2
20260509142324 22 227 0.0 0.0 0.00 0.03 0.03 88 1012.8
20260509142028 22 275 0.0 0.0 0.00 0.03 0.03 88 1011.1
20260509141821 22 261 0.0 0.0 0.00 0.03 0.03 88 1012.8
20260509141521 22 238 0.0 0.0 0.00 0.03 0.03 88 1011.0
20260509141318 22 258 0.0 0.0 0.00 0.03 0.03 88 1012.8
20260509141014 22 266 0.0 0.0 0.00 0.03 0.03 88 1011.1
20260509140814 22 250 0.0 0.0 0.00 0.03 0.03 89 1012.8
20260509140602 22 246 0.0 0.0 0.00 0.03 0.03 89 1011.0
20260509140332 22 247 0.0 0.0 0.00 0.03 0.03 89 1012.7
20260509135828 22 285 0.0 0.0 0.00 0.03 0.03 88 1012.8
20260509135547 22 269 0.0 0.0 0.00 0.03 0.03 89 1011.1
20260509135340 22 303 0.0 0.0 0.00 0.03 0.03 89 1012.6
20260509135012 22 281 0.0 0.0 0.00 0.03 0.03 89 1010.8
20260509134853 22 268 0.0 0.0 0.00 0.03 0.03 89 1012.5
20260509134541 21 236 0.0 0.0 0.00 0.03 0.03 89 1010.7
20260509134328 22 249 0.0 0.0 0.00 0.03 0.03 89 1012.4
20260509134032 21 265 0.0 0.0 0.00 0.03 0.03 89 1010.7
20260509133845 22 274 0.0 0.0 0.00 0.03 0.03 89 1012.5
20260509133559 21 270 0.0 0.0 0.00 0.03 0.03 90 1010.9
20260509133319 21 297 0.0 0.0 0.00 0.03 0.03 90 1012.5
20260509133051 21 247 0.0 0.0 0.00 0.03 0.03 90 1010.9
20260509132815 21 302 0.0 0.0 0.00 0.03 0.03 90 1012.3
20260509132541 21 311 0.0 0.0 0.00 0.03 0.03 91 1010.6
20260509132331 21 319 0.0 0.0 0.00 0.03 0.03 91 1012.2
20260509132031 21 319 0.0 0.0 0.00 0.03 0.03 91 1010.4
20260509131827 21 300 0.0 0.0 0.03 0.03 0.03 91 1012.2
20260509131513 21 294 0.0 0.0 0.03 0.03 0.03 91 1010.4
20260509131322 21 158 0.0 0.0 0.03 0.03 0.03 92 1011.9
20260509131004 20 159 0.0 0.0 0.03 0.03 0.03 91 1010.1
20260509130817 21 195 0.0 0.0 0.03 0.03 0.03 91 1011.7
20260509130557 20 208 0.0 0.0 0.03 0.03 0.03 92 1010.0
20260509130333 20 201 0.0 0.0 0.03 0.03 0.03 92 1011.5
20260509130047 20 220 0.0 0.0 0.03 0.03 0.03 92 1009.9
20260509125827 20 206 0.0 0.0 0.03 0.03 0.03 92 1011.4
20260509125541 20 230 0.0 11.3 0.03 0.03 0.03 92 1009.9
20260509125323 20 213 0.0 14.5 0.03 0.03 0.03 93 1011.4
20260509125033 20 237 0.0 14.5 0.03 0.03 0.03 93 1009.8
20260509124821 20 247 6.4 14.5 0.03 0.03 0.03 93 1011.4
20260509124525 19 235 6.4 12.9 0.03 0.03 0.03 93 1009.8
20260509124316 20 233 6.4 12.9 0.03 0.03 0.03 93 1011.3
20260509124049 19 228 6.4 12.9 0.03 0.03 0.03 93 1009.7
20260509123832 20 222 8.0 16.1 0.03 0.03 0.03 93 1011.3
20260509123541 19 216 6.4 19.3 0.03 0.03 0.03 93 1009.7
20260509123328 19 191 6.4 20.9 0.03 0.03 0.03 93 1011.3
20260509123042 19 192 8.0 20.9 0.03 0.03 0.03 93 1009.6
20260509122824 19 175 12.9 20.9 0.03 0.03 0.03 93 1011.0
20260509122528 18 190 12.9 17.7 0.03 0.03 0.03 93 1009.6
20260509122320 19 176 11.3 17.7 0.03 0.03 0.03 93 1011.1
20260509122023 18 167 11.3 17.7 0.03 0.03 0.03 93 1009.7
20260509121818 18 183 11.3 16.1 0.00 0.00 0.00 93 1011.4
20260509121512 18 187 11.3 14.5 0.00 0.00 0.00 93 1010.0
20260509121354 18 202 11.3 14.5 0.00 0.00 0.00 93 1011.7
20260509121042 18 186 9.7 16.1 0.00 0.00 0.00 93 1010.1
20260509120828 18 200 9.7 16.1 0.00 0.00 0.00 93 1011.9
20260509120533 18 180 9.7 16.1 0.00 0.00 0.00 93 1010.2
20260509120345 18 181 11.3 16.1 0.00 0.00 0.00 93 1011.8
20260509120057 18 196 11.3 16.1 0.00 0.00 0.00 92 1010.3
20260509115821 18 197 8.0 16.1 0.00 0.00 0.00 92 1012.0
20260509115548 18 228 9.7 16.1 0.00 0.00 0.00 92 1010.4
20260509115316 18 212 11.3 16.1 0.00 0.00 0.00 93 1012.0
20260509115040 18 210 8.0 12.9 0.00 0.00 0.00 92 1010.4
20260509114854 18 193 6.4 12.9 0.00 0.00 0.00 92 1012.1
20260509114504 18 190 4.8 12.9 0.00 0.00 0.00 92 1010.2
20260509114329 18 175 6.4 12.9 0.00 0.00 0.00 92 1011.7
20260509114055 18 181 8.0 11.3 0.00 0.00 0.00 92 1010.0
20260509113824 18 180 8.0 11.3 0.00 0.00 0.00 92 1011.7
20260509113549 18 184 4.8 6.4 0.00 0.00 0.00 92 1010.4
20260509113320 18 183 4.8 6.4 0.00 0.00 0.00 92 1012.0
20260509113039 18 168 6.4 8.0 0.00 0.00 0.00 92 1010.8
20260509112816 18 160 6.4 8.0 0.00 0.00 0.00 92 1012.4
20260509112530 18 160 3.2 8.0 0.00 0.00 0.00 92 1010.8
20260509112328 18 160 3.2 8.0 0.00 0.00 0.00 92 1012.4
20260509112026 18 160 4.8 8.0 0.00 0.00 0.00 92 1011.1
20260509111843 19 160 6.4 8.0 0.00 0.00 0.00 92 1012.8
20260509111551 18 160 6.4 11.3 0.00 0.00 0.00 92 1011.4
20260509111319 19 160 6.4 11.3 0.00 0.00 0.00 92 1013.0
20260509111041 18 159 6.4 11.3 0.00 0.00 0.00 92 1011.5
20260509110815 19 151 6.4 9.7 0.00 0.00 0.00 92 1013.0
20260509110532 19 143 3.2 6.4 0.00 0.00 0.00 92 1011.6
20260509110332 19 126 3.2 6.4 0.00 0.00 0.00 92 1013.2
20260509110030 19 126 3.2 6.4 0.00 0.00 0.00 92 1011.8
20260509105848 19 33 3.2 4.8 0.00 0.00 0.00 92 1013.4
20260509105554 19 33 0.0 3.2 0.00 0.00 0.00 92 1012.1
20260509105323 20 33 0.0 3.2 0.00 0.00 0.00 92 1013.7
20260509105046 19 33 1.6 4.8 0.00 0.00 0.00 92 1012.3
20260509104821 20 33 1.6 4.8 0.00 0.00 0.00 92 1014.1
20260509104540 19 33 0.0 6.4 0.00 0.00 0.00 92 1012.4
20260509104338 20 33 3.2 6.4 0.00 0.00 0.00 92 1014.0
20260509104000 19 33 3.2 6.4 0.00 0.00 0.00 92 1012.7
20260509103832 20 349 1.6 6.4 0.00 0.00 0.00 92 1014.2
20260509103554 19 4 0.0 6.4 0.00 0.00 0.00 92 1012.8
20260509103348 20 4 1.6 6.4 0.00 0.00 0.00 92 1014.3
20260509103027 19 4 3.2 9.7 0.00 0.00 0.00 92 1012.8
20260509102824 20 4 3.2 14.5 0.00 0.00 0.00 92 1014.3
20260509102523 19 331 3.2 14.5 0.00 0.00 0.00 92 1012.9
20260509102321 20 328 4.8 14.5 0.00 0.00 0.00 92 1014.5
20260509102007 19 320 6.4 14.5 0.00 0.00 0.00 92 1013.1
20260509101818 19 348 6.4 14.5 0.00 0.00 0.00 92 1014.5
20260509101501 19 21 6.4 14.5 0.00 0.00 0.00 92 1013.0
20260509101314 19 330 6.4 14.5 0.00 0.00 0.00 92 1014.5
20260509101054 18 17 8.0 14.5 0.00 0.00 0.00 92 1013.0
20260509100831 19 339 9.7 14.5 0.00 0.00 0.00 92 1014.5
20260509100544 18 4 6.4 14.5 0.00 0.00 0.00 92 1012.9
20260509100327 19 320 6.4 12.9 0.00 0.00 0.00 92 1014.4
20260509100037 18 320 6.4 11.3 0.00 0.00 0.00 92 1012.7
20260509095842 19 347 6.4 9.7 0.00 0.00 0.00 92 1014.1
20260509095600 18 348 4.8 8.0 0.00 0.00 0.00 92 1012.3
20260509095318 19 320 4.8 9.7 0.00 0.00 0.00 92 1013.7
20260509095054 18 295 3.2 9.7 0.00 0.00 0.00 92 1012.1
20260509094815 19 287 4.8 9.7 0.00 0.00 0.00 92 1013.5
20260509094547 18 288 6.4 9.7 0.00 0.00 0.00 92 1012.1
20260509094350 19 308 4.8 8.0 0.00 0.00 0.00 92 1013.7
20260509094009 18 294 1.6 3.2 0.00 0.00 0.00 92 1012.1
20260509093827 19 294 1.6 4.8 0.00 0.00 0.00 92 1013.6
20260509093600 18 294 1.6 4.8 0.00 0.00 0.00 92 1012.0
20260509093323 19 294 1.6 4.8 0.00 0.00 0.00 92 1013.6
20260509093050 18 295 1.6 4.8 0.00 0.00 0.00 92 1012.1
20260509092819 19 294 1.6 6.4 0.00 0.00 0.00 92 1013.6
20260509092550 18 294 1.6 8.0 0.00 0.00 0.00 92 1012.1
20260509092315 19 295 3.2 8.0 0.00 0.00 0.00 92 1013.6
20260509092044 18 294 3.2 8.0 0.00 0.00 0.00 92 1012.2
20260509091832 19 341 4.8 8.0 0.00 0.00 0.00 92 1013.6
20260509091539 19 342 6.4 8.0 0.00 0.00 0.00 92 1012.1
20260509091329 19 325 3.2 6.4 0.00 0.00 0.00 92 1013.0
20260509091028 19 211 3.2 6.4 0.00 0.00 0.00 92 1011.2
20260509090825 19 4 3.2 4.8 0.00 0.00 0.00 92 1012.7
20260509090525 19 4 0.0 3.2 0.00 0.00 0.00 92 1011.7
20260509090343 19 4 0.0 3.2 0.00 0.00 0.00 92 1013.4
20260509090055 19 4 1.6 6.4 0.00 0.00 0.00 92 1012.1
20260509085817 19 4 1.6 9.7 0.00 0.00 0.00 92 1013.5
20260509085540 19 4 1.6 9.7 0.00 0.00 0.00 92 1011.9
20260509085328 19 4 3.2 9.7 0.00 0.00 0.00 92 1013.4
20260509085002 19 354 6.4 11.3 0.00 0.00 0.00 92 1012.0
20260509084825 19 27 6.4 9.7 0.00 0.00 0.00 92 1013.5
20260509084557 19 14 6.4 8.0 0.00 0.00 0.00 91 1011.6
20260509084322 19 173 6.4 8.0 0.00 0.00 0.00 91 1012.8
20260509084050 19 172 0.0 3.2 0.00 0.00 0.00 91 1011.0
20260509083817 20 172 0.0 3.2 0.00 0.00 0.00 91 1012.4
20260509083543 19 172 0.0 3.2 0.00 0.00 0.00 91 1011.0
20260509083314 20 172 0.0 3.2 0.00 0.00 0.00 91 1012.5
20260509083038 20 172 0.0 3.2 0.00 0.00 0.00 91 1011.0
20260509082831 20 172 1.6 3.2 0.00 0.00 0.00 91 1012.3
20260509082530 20 172 0.0 1.6 0.00 0.00 0.00 91 1010.8
20260509082328 20 173 0.0 1.6 0.00 0.00 0.00 91 1012.3
20260509082010 20 172 0.0 1.6 0.00 0.00 0.00 91 1011.0
20260509081824 20 172 0.0 1.6 0.00 0.00 0.00 91 1012.6
20260509081506 20 172 0.0 4.8 0.00 0.00 0.00 91 1011.2
20260509081339 20 172 0.0 4.8 0.00 0.00 0.00 91 1012.7
20260509081035 20 172 0.0 6.4 0.00 0.00 0.00 91 1011.2
20260509080814 20 172 3.2 6.4 0.00 0.00 0.00 92 1012.6
20260509080529 20 172 3.2 6.4 0.00 0.00 0.00 92 1011.2
20260509080330 20 172 4.8 8.0 0.00 0.00 0.00 92 1012.6
20260509080014 20 172 3.2 11.3 0.00 0.00 0.00 92 1011.2
20260509075826 20 172 4.8 11.3 0.00 0.00 0.00 92 1012.6
20260509075504 20 195 4.8 14.5 0.00 0.00 0.00 92 1011.2
20260509075341 20 206 8.0 14.5 0.00 0.00 0.00 92 1012.6
20260509075038 20 194 8.0 16.1 0.00 0.00 0.00 92 1011.0
20260509074816 20 201 9.7 17.7 0.00 0.00 0.00 92 1012.4
20260509074504 20 208 11.3 17.7 0.00 0.00 0.00 92 1011.0
20260509074333 20 201 11.3 17.7 0.00 0.00 0.00 92 1012.4
20260509074054 20 210 12.9 17.7 0.00 0.00 0.00 92 1010.9
20260509073828 20 188 12.9 16.1 0.00 0.00 0.00 92 1012.4
20260509073545 19 206 9.7 14.5 0.00 0.00 0.00 92 1011.0
20260509073344 20 177 11.3 14.5 0.00 0.00 0.00 92 1012.6
20260509073018 19 197 8.0 14.5 0.00 0.00 0.00 92 1011.5
20260509072820 19 201 8.0 12.9 0.00 0.00 0.00 92 1012.9
20260509072516 19 202 6.4 12.9 0.00 0.00 0.00 92 1011.5
20260509072317 19 210 6.4 12.9 0.00 0.00 0.00 92 1013.0
20260509072057 19 214 6.4 12.9 0.00 0.00 0.00 92 1011.5
20260509071833 19 211 8.0 12.9 0.00 0.00 0.00 92 1012.9
20260509071607 19 202 8.0 11.3 0.00 0.00 0.00 91 1011.5
20260509071330 19 197 6.4 9.7 0.00 0.00 0.00 91 1013.0
20260509071046 19 212 3.2 6.4 0.00 0.00 0.00 91 1011.7
20260509070826 19 212 3.2 4.8 0.00 0.00 0.00 91 1013.2
20260509070538 18 194 0.0 0.0 0.00 0.00 0.00 91 1011.9
20260509070323 19 194 0.0 0.0 0.00 0.00 0.00 91 1013.3
20260509070034 18 194 0.0 0.0 0.00 0.00 0.00 91 1011.9
20260509065840 19 194 0.0 1.6 0.00 0.00 0.00 91 1013.1
20260509065559 19 194 0.0 3.2 0.00 0.00 0.00 91 1011.6
20260509065316 19 194 0.0 3.2 0.00 0.00 0.00 91 1012.9
20260509065054 19 194 0.0 3.2 0.00 0.00 0.00 91 1011.5
20260509064832 19 194 1.6 3.2 0.00 0.00 0.00 91 1012.9
20260509064544 19 194 1.6 3.2 0.00 0.00 0.00 91 1011.6
20260509064329 20 194 0.0 1.6 0.00 0.00 0.00 91 1013.0
20260509064039 19 194 0.0 1.6 0.00 0.00 0.00 91 1011.7
20260509063825 20 194 0.0 1.6 0.00 0.00 0.00 91 1013.1
20260509063530 19 194 0.0 1.6 0.00 0.00 0.00 91 1011.8
20260509063342 20 194 0.0 1.6 0.00 0.00 0.00 91 1013.1
20260509063054 19 194 0.0 3.2 0.00 0.00 0.00 91 1012.0
20260509062832 20 194 0.0 4.8 0.00 0.00 0.00 91 1013.3
20260509062529 19 194 0.0 4.8 0.00 0.00 0.00 91 1012.0
20260509062326 20 194 3.2 6.4 0.00 0.00 0.00 91 1013.3
20260509062024 19 194 3.2 6.4 0.00 0.00 0.00 91 1012.0
20260509061821 20 194 3.2 6.4 0.00 0.00 0.00 91 1013.3
20260509061519 19 194 3.2 6.4 0.00 0.00 0.00 91 1011.9
20260509061316 20 194 3.2 6.4 0.00 0.00 0.00 91 1013.2
20260509061101 20 194 3.2 6.4 0.00 0.00 0.00 91 1011.8
20260509060852 20 194 4.8 6.4 0.00 0.00 0.00 91 1013.0
20260509060531 20 267 3.2 4.8 0.00 0.00 0.00 91 1011.9
20260509060323 20 267 3.2 4.8 0.00 0.00 0.00 91 1013.1
20260509060118 19 267 1.6 3.2 0.00 0.00 0.00 91 1011.8
20260509055815 20 267 1.6 3.2 0.00 0.00 0.00 91 1013.1
20260509055552 19 267 0.0 6.4 0.00 0.00 0.00 91 1011.9
20260509055331 20 267 0.0 6.4 0.00 0.00 0.00 91 1013.3
20260509055045 19 267 0.0 6.4 0.00 0.00 0.00 91 1012.1
20260509054828 20 266 3.2 6.4 0.00 0.00 0.00 91 1013.4
20260509054540 19 285 1.6 4.8 0.00 0.00 0.00 91 1012.1
20260509054323 19 285 1.6 4.8 0.00 0.00 0.00 91 1013.3
20260509054030 19 285 1.6 4.8 0.00 0.00 0.00 91 1011.9
20260509053820 19 285 3.2 4.8 0.00 0.00 0.00 91 1013.1
20260509053524 18 312 0.0 8.0 0.00 0.00 0.00 91 1011.4
20260509053315 19 312 1.6 8.0 0.00 0.00 0.00 91 1012.7
20260509053014 18 312 1.6 8.0 0.00 0.00 0.00 91 1011.4
20260509052830 19 312 4.8 8.0 0.00 0.00 0.00 91 1012.7
20260509052547 18 312 4.8 8.0 0.00 0.00 0.00 91 1011.3
20260509052326 19 321 3.2 4.8 0.00 0.00 0.00 91 1012.6
20260509052037 18 153 3.2 4.8 0.00 0.00 0.00 91 1011.0
20260509051824 19 153 3.2 4.8 0.00 0.00 0.00 91 1012.5
20260509051530 18 152 1.6 3.2 0.00 0.00 0.00 91 1011.2
20260509051321 19 153 1.6 3.2 0.00 0.00 0.00 91 1012.5
20260509051024 18 153 0.0 3.2 0.00 0.00 0.00 91 1011.0
20260509050838 18 154 0.0 3.2 0.00 0.00 0.00 91 1012.3
20260509050548 18 153 1.6 4.8 0.00 0.00 0.00 91 1011.0
20260509050329 18 153 1.6 4.8 0.00 0.00 0.00 91 1012.2
20260509050051 18 153 1.6 4.8 0.00 0.00 0.00 91 1010.9
20260509045835 18 153 3.2 4.8 0.00 0.00 0.00 90 1012.1
20260509045538 18 153 3.2 4.8 0.00 0.00 0.00 90 1010.8
20260509045330 19 154 3.2 4.8 0.00 0.00 0.00 90 1012.1
20260509045035 19 153 1.6 3.2 0.00 0.00 0.00 90 1010.6
20260509044826 19 153 1.6 3.2 0.00 0.00 0.00 90 1012.0
20260509044524 19 153 0.0 1.6 0.00 0.00 0.00 90 1010.4
20260509044322 20 153 0.0 1.6 0.00 0.00 0.00 90 1011.7
20260509044045 19 153 0.0 3.2 0.00 0.00 0.00 90 1010.4
20260509043850 20 154 0.0 4.8 0.00 0.00 0.00 90 1011.7
20260509043508 19 153 0.0 4.8 0.00 0.00 0.00 90 1010.4
20260509043325 20 153 1.6 4.8 0.00 0.00 0.00 90 1011.8
20260509043103 19 154 0.0 3.2 0.00 0.00 0.00 90 1010.5
20260509042822 20 153 0.0 1.6 0.00 0.00 0.00 90 1011.9
20260509042556 19 153 0.0 0.0 0.00 0.00 0.00 90 1010.6
20260509042318 20 153 0.0 3.2 0.00 0.00 0.00 90 1011.9
20260509042048 19 153 0.0 4.8 0.00 0.00 0.00 90 1010.7
20260509041815 20 153 0.0 4.8 0.00 0.00 0.00 90 1012.1
20260509041541 20 153 1.6 4.8 0.00 0.00 0.00 90 1010.8
20260509041331 20 153 3.2 4.8 0.00 0.00 0.00 90 1012.2
20260509041034 20 153 0.0 3.2 0.00 0.00 0.00 89 1010.8
20260509040828 20 154 0.0 1.6 0.00 0.00 0.00 89 1012.2
20260509040527 20 153 0.0 1.6 0.00 0.00 0.00 89 1010.8
20260509040325 20 153 0.0 0.0 0.00 0.00 0.00 89 1012.1
20260509040010 20 154 0.0 1.6 0.00 0.00 0.00 89 1010.9
20260509035820 20 154 0.0 1.6 0.00 0.00 0.00 89 1012.1
20260509035508 20 154 0.0 1.6 0.00 0.00 0.00 89 1010.9
20260509035315 20 153 0.0 1.6 0.00 0.00 0.00 89 1012.2
20260509035057 20 153 0.0 0.0 0.00 0.00 0.00 89 1010.9
20260509034831 20 153 0.0 0.0 0.00 0.00 0.00 89 1012.1
20260509034552 20 153 0.0 0.0 0.00 0.00 0.00 89 1010.8
20260509034328 20 153 0.0 0.0 0.00 0.00 0.00 89 1012.0
20260509034044 20 153 0.0 0.0 0.00 0.00 0.00 89 1010.7
20260509033845 20 153 0.0 0.0 0.00 0.00 0.00 89 1012.1
20260509033510 20 154 0.0 0.0 0.00 0.00 0.00 89 1010.8
20260509033341 20 153 0.0 0.0 0.00 0.00 0.00 89 1012.0
20260509033042 20 153 0.0 0.0 0.00 0.00 0.00 89 1010.8
20260509032817 20 153 0.0 0.0 0.00 0.00 0.00 89 1012.1
20260509032534 20 154 0.0 0.0 0.00 0.00 0.00 89 1010.7
20260509032314 20 154 0.0 0.0 0.00 0.00 0.00 89 1012.0
20260509032027 20 153 0.0 0.0 0.00 0.00 0.00 89 1010.7
20260509031830 20 153 0.0 0.0 0.00 0.00 0.00 89 1011.9
20260509031516 20 153 0.0 0.0 0.00 0.00 0.00 89 1010.6
20260509031347 21 153 0.0 0.0 0.00 0.00 0.00 89 1011.8
20260509031040 20 154 0.0 1.6 0.00 0.00 0.00 89 1010.5
20260509030822 21 153 0.0 1.6 0.00 0.00 0.00 89 1011.6
20260509030532 20 154 0.0 3.2 0.00 0.00 0.00 89 1010.2
20260509030335 21 153 0.0 3.2 0.00 0.00 0.00 89 1011.4
20260509030100 20 153 0.0 4.8 0.00 0.00 0.00 89 1010.2
20260509025832 21 153 1.6 4.8 0.00 0.00 0.00 89 1011.4
20260509025551 20 153 1.6 8.0 0.00 0.00 0.00 89 1010.0
20260509025349 21 153 1.6 8.0 0.00 0.00 0.00 89 1011.3
20260509025021 20 154 3.2 8.0 0.00 0.00 0.00 89 1010.0
20260509024844 21 153 4.8 8.0 0.00 0.00 0.00 89 1011.2
20260509024544 21 154 3.2 8.0 0.00 0.00 0.00 89 1010.0
20260509024339 21 154 4.8 6.4 0.00 0.00 0.00 89 1011.2
20260509024015 21 154 1.6 8.0 0.00 0.00 0.00 89 1010.0
20260509023815 21 153 1.6 8.0 0.00 0.00 0.00 89 1011.3
20260509023600 21 154 3.2 8.0 0.00 0.00 0.00 89 1010.1
20260509023331 21 153 3.2 8.0 0.00 0.00 0.00 89 1011.2
20260509023057 21 154 1.6 8.0 0.00 0.00 0.00 88 1010.0
20260509022846 21 153 3.2 8.0 0.00 0.00 0.00 88 1011.2
20260509022523 21 154 1.6 8.0 0.00 0.00 0.00 88 1010.0
20260509022320 21 153 1.6 11.3 0.00 0.00 0.00 88 1011.1
20260509022006 21 154 3.2 11.3 0.00 0.00 0.00 88 1009.8
20260509021817 21 136 4.8 11.3 0.00 0.00 0.00 88 1011.0
20260509021600 21 149 6.4 9.7 0.00 0.00 0.00 88 1009.8
20260509021314 21 154 4.8 8.0 0.00 0.00 0.00 88 1011.0
20260509021053 21 138 3.2 8.0 0.00 0.00 0.00 88 1009.8
20260509020831 21 135 3.2 11.3 0.00 0.00 0.00 88 1010.9
20260509020546 21 146 4.8 11.3 0.00 0.00 0.00 88 1009.7
20260509020327 21 140 4.8 11.3 0.00 0.00 0.00 87 1010.8
20260509020038 21 131 4.8 9.7 0.00 0.00 0.00 88 1009.6
20260509015822 21 148 4.8 11.3 0.00 0.00 0.00 87 1010.8
20260509015603 21 152 4.8 11.3 0.00 0.00 0.00 87 1009.6
20260509015318 21 156 6.4 11.3 0.00 0.00 0.00 87 1010.8
20260509015051 21 152 6.4 11.3 0.00 0.00 0.00 87 1009.6
20260509014814 21 158 8.0 11.3 0.00 0.00 0.00 87 1010.9
20260509014544 21 139 3.2 9.7 0.00 0.00 0.00 87 1009.6
20260509014331 22 136 1.6 6.4 0.00 0.00 0.00 86 1010.8
20260509014012 21 148 0.0 0.0 0.00 0.00 0.00 87 1009.7
20260509013829 22 143 0.0 0.0 0.00 0.00 0.00 86 1010.9
20260509013544 21 135 0.0 0.0 0.00 0.00 0.00 86 1009.6
20260509013344 22 125 0.0 0.0 0.00 0.00 0.00 86 1010.8
20260509013027 22 127 0.0 0.0 0.00 0.00 0.00 86 1009.6
20260509012818 22 156 0.0 0.0 0.00 0.00 0.00 86 1010.8
20260509012502 22 142 0.0 0.0 0.00 0.00 0.00 86 1009.8
20260509012333 22 137 0.0 0.0 0.00 0.00 0.00 86 1011.1
20260509012054 22 106 0.0 0.0 0.00 0.00 0.00 86 1009.8
20260509011830 22 106 0.0 0.0 0.00 0.00 0.00 85 1011.2
20260509011548 22 106 0.0 0.0 0.00 0.00 0.00 85 1009.9
20260509011329 22 106 0.0 0.0 0.00 0.00 0.00 85 1011.1
20260509011036 22 112 0.0 0.0 0.00 0.00 0.00 85 1009.9
20260509010824 22 112 0.0 0.0 0.00 0.00 0.00 85 1011.0
20260509010528 22 112 0.0 0.0 0.00 0.00 0.00 85 1009.8
20260509010320 22 112 0.0 0.0 0.00 0.00 0.00 85 1010.9
20260509010027 22 103 0.0 0.0 0.00 0.00 0.00 85 1009.6
20260509005816 22 101 0.0 0.0 0.00 0.00 0.00 85 1010.7
20260509005517 22 156 0.0 0.0 0.00 0.00 0.00 85 1009.5
20260509005332 22 120 0.0 0.0 0.00 0.00 0.00 85 1010.6
20260509005059 22 149 0.0 0.0 0.00 0.00 0.00 85 1009.3
20260509004829 22 145 0.0 0.0 0.00 0.00 0.00 85 1010.5
20260509004555 22 85 0.0 0.0 0.00 0.00 0.00 85 1009.3
20260509004325 22 117 0.0 0.0 0.00 0.00 0.00 85 1010.5
20260509004044 22 139 0.0 0.0 0.00 0.00 0.00 85 1009.2
20260509003822 22 101 0.0 0.0 0.00 0.00 0.00 85 1010.4
20260509003536 22 98 0.0 0.0 0.00 0.00 0.00 85 1009.1
20260509003317 22 109 0.0 0.0 0.00 0.00 0.00 84 1010.4
20260509003032 22 95 0.0 0.0 0.00 0.00 0.00 84 1009.2
20260509002833 22 112 0.0 0.0 0.00 0.00 0.00 84 1010.4
20260509002528 22 62 0.0 0.0 0.00 0.00 0.00 84 1009.3
20260509002330 22 94 0.0 0.0 0.00 0.00 0.00 84 1010.5
20260509002012 22 101 0.0 0.0 0.00 0.00 0.00 84 1009.3
20260509001827 22 106 0.0 0.0 0.00 0.00 0.00 84 1010.5
20260509001600 22 79 0.0 0.0 0.00 0.00 0.00 84 1009.4
20260509001324 22 80 0.0 0.0 0.00 0.00 0.00 84 1010.5
20260509001053 22 80 0.0 0.0 0.00 0.00 0.00 84 1009.3
20260509000820 22 120 0.0 0.0 0.00 0.00 0.00 84 1010.5
20260509000550 22 110 0.0 0.0 0.00 0.00 0.00 84 1009.4
20260509000318 22 139 0.0 0.0 0.00 0.00 0.00 84 1010.6
20260509000053 22 95 0.0 0.0 0.00 0.00 0.00 84 1009.3
20260508235832 22 128 0.0 0.0 0.00 0.00 0.00 84 1010.5
20260508235532 22 167 0.0 0.0 0.00 0.00 0.00 84 1009.2
20260508235327 22 97 0.0 0.0 0.00 0.00 0.00 84 1010.4
20260508235027 22 53 0.0 0.0 0.00 0.00 0.00 84 1009.3
20260508234844 22 79 0.0 0.0 0.00 0.00 0.00 84 1010.5
20260508234608 22 125 0.0 0.0 0.00 0.00 0.00 84 1009.4
20260508234321 22 104 0.0 0.0 0.00 0.00 0.00 84 1010.5
20260508234050 22 111 0.0 0.0 0.00 0.00 0.00 83 1009.3
20260508233818 22 113 0.0 0.0 0.00 0.00 0.00 83 1010.7
20260508233540 22 124 0.0 0.0 0.00 0.00 0.00 83 1009.5
20260508233351 22 102 0.0 0.0 0.00 0.00 0.00 84 1010.6
20260508233002 22 79 0.0 0.0 0.00 0.00 0.00 83 1009.5
20260508232826 22 108 0.0 0.0 0.00 0.00 0.00 83 1010.7
20260508232557 22 85 0.0 0.0 0.00 0.00 0.00 83 1009.4
20260508232321 22 141 0.0 0.0 0.00 0.00 0.00 83 1010.6
20260508232049 22 116 0.0 0.0 0.00 0.00 0.00 83 1009.4
20260508231816 22 110 0.0 0.0 0.00 0.00 0.00 83 1010.7
20260508231543 22 132 0.0 0.0 0.00 0.00 0.00 83 1009.3
20260508231330 22 133 0.0 0.0 0.00 0.00 0.00 83 1010.6
20260508231006 22 118 0.0 0.0 0.00 0.00 0.00 83 1009.5
20260508230825 22 93 0.0 0.0 0.00 0.00 0.00 83 1010.7
20260508230600 22 154 0.0 0.0 0.00 0.00 0.00 83 1009.4
20260508230320 22 70 0.0 0.0 0.00 0.00 0.00 83 1010.6
20260508230058 22 30 0.0 0.0 0.00 0.00 0.00 83 1009.4
20260508225816 22 58 0.0 0.0 0.00 0.00 0.00 83 1010.6
20260508225544 22 50 0.0 0.0 0.00 0.00 0.00 83 1009.4
20260508225331 22 79 0.0 0.0 0.00 0.00 0.00 83 1010.6
20260508225036 22 78 0.0 0.0 0.00 0.00 0.00 83 1009.4
20260508224827 22 111 0.0 0.0 0.00 0.00 0.00 83 1010.6
20260508224534 22 102 0.0 0.0 0.00 0.00 0.00 83 1009.6
20260508224323 22 120 0.0 0.0 0.00 0.00 0.00 82 1010.7
20260508224025 22 108 0.0 0.0 0.00 0.00 0.00 82 1009.5
20260508223821 22 121 0.0 0.0 0.00 0.00 0.00 82 1010.7
20260508223519 22 78 0.0 0.0 0.00 0.00 0.00 82 1009.4
20260508223317 23 66 0.0 0.0 0.00 0.00 0.00 82 1010.6
20260508223024 22 90 0.0 0.0 0.00 0.00 0.00 82 1009.5
20260508222833 23 97 0.0 0.0 0.00 0.00 0.00 82 1010.5
20260508222603 22 116 0.0 0.0 0.00 0.00 0.00 82 1009.5
20260508222330 23 154 0.0 0.0 0.00 0.00 0.00 82 1010.7
20260508222054 22 115 0.0 0.0 0.00 0.00 0.00 82 1009.6
20260508221847 22 99 0.0 0.0 0.00 0.00 0.00 82 1010.7
20260508221531 22 133 0.0 0.0 0.00 0.00 0.00 83 1009.6
20260508221322 22 145 0.0 0.0 0.00 0.00 0.00 83 1010.8
20260508221008 22 141 0.0 0.0 0.00 0.00 0.00 82 1009.6
20260508220819 22 98 0.0 0.0 0.00 0.00 0.00 82 1010.7
20260508220604 22 127 0.0 0.0 0.00 0.00 0.00 82 1009.7
20260508220316 22 130 0.0 0.0 0.00 0.00 0.00 82 1010.8
20260508220054 22 102 0.0 0.0 0.00 0.00 0.00 82 1009.7
20260508215832 22 87 0.0 0.0 0.00 0.00 0.00 81 1010.9
20260508215518 22 88 0.0 0.0 0.00 0.00 0.00 82 1009.6
20260508215329 23 81 0.0 0.0 0.00 0.00 0.00 82 1010.9
20260508215008 22 137 0.0 0.0 0.00 0.00 0.00 82 1009.8
20260508214845 23 145 0.0 0.0 0.00 0.00 0.00 81 1010.9
20260508214542 22 157 0.0 0.0 0.00 0.00 0.00 81 1009.9
20260508214341 23 112 0.0 0.0 0.00 0.00 0.00 81 1011.0
20260508214014 22 106 0.0 0.0 0.00 0.00 0.00 81 1009.9
20260508213816 23 139 0.0 0.0 0.00 0.00 0.00 81 1011.0
20260508213555 23 84 0.0 0.0 0.00 0.00 0.00 81 1009.8
20260508213333 23 115 0.0 0.0 0.00 0.00 0.00 82 1011.0
20260508213059 22 159 0.0 0.0 0.00 0.00 0.00 82 1010.0
20260508212828 23 78 0.0 0.0 0.00 0.00 0.00 82 1011.0
20260508212538 22 152 0.0 0.0 0.00 0.00 0.00 81 1010.0
20260508212323 23 106 0.0 0.0 0.00 0.00 0.00 82 1011.1
20260508212033 22 129 0.0 0.0 0.00 0.00 0.00 82 1010.0
20260508211819 22 90 0.0 0.0 0.00 0.00 0.00 82 1011.1
20260508211558 22 81 0.0 0.0 0.00 0.00 0.00 82 1010.3
20260508211335 22 118 0.0 0.0 0.00 0.00 0.00 82 1011.4
20260508211029 22 162 0.0 0.0 0.00 0.00 0.00 82 1010.3
20260508210828 22 68 0.0 0.0 0.00 0.00 0.00 83 1011.4
20260508210509 22 87 0.0 0.0 0.00 0.00 0.00 82 1010.3
20260508210324 22 126 0.0 0.0 0.00 0.00 0.00 82 1011.5
20260508210002 22 119 0.0 0.0 0.00 0.00 0.00 82 1010.5
20260508205820 22 102 0.0 0.0 0.00 0.00 0.00 82 1011.5
20260508205557 22 117 0.0 0.0 0.00 0.00 0.00 82 1010.7
20260508205317 22 133 0.0 0.0 0.00 0.00 0.00 83 1011.7
20260508205053 22 163 0.0 0.0 0.00 0.00 0.00 84 1010.6
20260508204834 22 120 0.0 0.0 0.00 0.00 0.00 83 1011.6
20260508204546 22 64 0.0 0.0 0.00 0.00 0.00 83 1010.6
20260508204329 22 85 0.0 0.0 0.00 0.00 0.00 83 1011.8
20260508204039 22 131 0.0 0.0 0.00 0.00 0.00 83 1010.9
20260508203825 22 89 0.0 0.0 0.00 0.00 0.00 82 1011.9
20260508203535 22 76 0.0 0.0 0.00 0.00 0.00 82 1010.8
20260508203322 22 112 0.0 0.0 0.00 0.00 0.00 82 1011.9
20260508203032 22 86 0.0 0.0 0.00 0.00 0.00 82 1010.8
20260508202817 22 139 0.0 0.0 0.00 0.00 0.00 82 1012.0
20260508202519 22 25 0.0 0.0 0.00 0.00 0.00 83 1011.0
20260508202332 22 81 0.0 0.0 0.00 0.00 0.00 83 1012.1
20260508202103 22 158 0.0 0.0 0.00 0.00 0.00 83 1011.1
20260508201827 22 88 0.0 0.0 0.00 0.00 0.00 83 1012.2
20260508201609 21 153 0.0 0.0 0.00 0.00 0.00 84 1011.2
20260508201323 21 140 0.0 0.0 0.00 0.00 0.00 83 1012.3
20260508201025 21 160 0.0 0.0 0.00 0.00 0.00 84 1011.4
20260508200838 21 130 0.0 0.0 0.00 0.00 0.00 84 1012.4
20260508200549 21 137 0.0 0.0 0.00 0.00 0.00 83 1011.7
20260508200332 21 141 0.0 0.0 0.00 0.00 0.00 84 1012.7
20260508200045 21 110 0.0 0.0 0.00 0.00 0.00 84 1011.8
20260508195828 21 144 0.0 0.0 0.00 0.03 0.00 84 1012.7
20260508195532 21 156 0.0 0.0 0.00 0.03 0.00 84 1011.7
20260508195325 21 129 0.0 0.0 0.00 0.03 0.00 84 1012.7
20260508195023 21 83 0.0 0.0 0.00 0.03 0.00 84 1011.8
20260508194820 21 114 0.0 0.0 0.00 0.03 0.00 84 1012.7
20260508194507 21 103 0.0 0.0 0.00 0.03 0.00 84 1011.7
20260508194317 21 108 0.0 0.0 0.00 0.03 0.00 84 1012.6
20260508194101 21 89 0.0 0.0 0.00 0.03 0.00 85 1011.8
20260508193833 21 104 0.0 0.0 0.00 0.03 0.00 84 1012.8
20260508193557 21 112 0.0 0.0 0.00 0.03 0.00 84 1011.7
20260508193330 21 137 0.0 0.0 0.00 0.03 0.00 84 1012.9
20260508193054 21 106 0.0 0.0 0.00 0.03 0.00 84 1011.9
20260508192825 21 87 0.0 0.0 0.00 0.03 0.00 84 1012.9
20260508192541 20 114 0.0 0.0 0.00 0.03 0.00 84 1011.8
20260508192323 21 116 0.0 0.0 0.00 0.03 0.00 85 1012.9
20260508192036 20 92 0.0 0.0 0.00 0.03 0.00 85 1012.0
20260508191839 20 107 0.0 0.0 0.00 0.03 0.00 85 1013.1
20260508191559 20 106 0.0 0.0 0.00 0.03 0.00 85 1012.2
20260508191315 20 154 0.0 0.0 0.00 0.03 0.00 85 1013.1
20260508191051 20 97 0.0 0.0 0.00 0.03 0.00 85 1012.3
20260508190831 20 95 0.0 0.0 0.00 0.03 0.00 85 1013.2
20260508190547 20 100 0.0 0.0 0.00 0.03 0.00 85 1012.2
20260508190327 20 145 0.0 0.0 0.00 0.03 0.00 85 1013.2
20260508190049 20 140 0.0 0.0 0.00 0.03 0.00 85 1012.2
20260508185823 20 47 0.0 0.0 0.00 0.03 0.00 85 1013.2
20260508185535 20 133 0.0 0.0 0.00 0.03 0.00 85 1012.3
20260508185318 20 111 0.0 0.0 0.00 0.03 0.00 85 1013.3
20260508185103 20 128 0.0 0.0 0.00 0.03 0.00 85 1012.4
20260508184853 20 75 0.0 0.0 0.00 0.03 0.00 85 1013.3
20260508184538 20 56 0.0 0.0 0.00 0.03 0.00 85 1012.4
20260508184329 20 21 0.0 0.0 0.00 0.03 0.00 85 1013.1
20260508184031 20 44 0.0 0.0 0.00 0.03 0.00 85 1012.2
20260508183823 20 77 0.0 0.0 0.00 0.03 0.00 86 1013.2
20260508183557 20 102 0.0 0.0 0.00 0.03 0.00 85 1012.3
20260508183320 20 142 0.0 0.0 0.00 0.03 0.00 85 1013.2
20260508183054 20 87 0.0 0.0 0.00 0.03 0.00 85 1012.4
20260508182816 20 51 0.0 0.0 0.00 0.03 0.00 86 1013.2
20260508182544 20 95 0.0 0.0 0.00 0.03 0.00 86 1012.4
20260508182328 20 61 0.0 0.0 0.00 0.03 0.00 85 1013.3
20260508182035 20 91 0.0 0.0 0.00 0.03 0.00 86 1012.6
20260508181825 20 85 0.0 0.0 0.00 0.03 0.00 85 1013.5
20260508181543 20 27 0.0 0.0 0.00 0.03 0.00 86 1012.7
20260508181322 20 120 0.0 0.0 0.00 0.03 0.00 85 1013.6
20260508181020 20 120 0.0 0.0 0.00 0.03 0.00 86 1012.8
20260508180818 20 69 0.0 0.0 0.00 0.03 0.00 86 1013.7
20260508180504 20 127 0.0 0.0 0.00 0.03 0.00 86 1012.8
20260508180314 20 99 0.0 0.0 0.00 0.03 0.00 86 1013.8
20260508180110 20 163 0.0 0.0 0.00 0.03 0.00 86 1012.8
20260508175831 20 139 0.0 0.0 0.00 0.03 0.00 86 1013.7